timestamp,surface_pressure_avg,surface_temp_avg,battery_voltage,lat,long
2022-01-08 00:09:00+00:00,298.2614,3.4,12.65,47.84626,-54.09684
2022-01-08 00:19:00+00:00,315.8579,3.4,12.65,47.84626,-54.09684
2022-01-08 00:29:00+00:00,286.4697,3.4,12.65,47.84626,-54.09684
2022-01-08 00:39:00+00:00,249.4364,3.39,12.65,47.84626,-54.09684
2022-01-08 00:49:00+00:00,246.4631,3.33,12.65,47.84626,-54.09684
2022-01-08 00:59:00+00:00,258.6781,3.39,12.65,47.84626,-54.09684
2022-01-08 01:09:00+00:00,251.5481,3.4,12.65,47.84626,-54.09684
2022-01-08 01:19:00+00:00,250.2547,3.4,12.65,47.84626,-54.09684
2022-01-08 01:29:00+00:00,290.6497,3.3,12.65,47.84626,-54.09684
2022-01-08 01:39:00+00:00,312.9413,3.34,12.65,47.84626,-54.09684
2022-01-08 01:49:00+00:00,294.673,3.4,12.65,47.84626,-54.09684
2022-01-08 01:59:00+00:00,310.1697,3.46,12.65,47.84626,-54.09684
2022-01-08 02:09:00+00:00,355.348,3.5,12.65,47.84626,-54.09684
2022-01-08 02:19:00+00:00,355.2463,3.5,12.65,47.84626,-54.09684
2022-01-08 02:29:00+00:00,322.6613,3.49,12.65,47.84626,-54.09684
2022-01-08 02:39:00+00:00,338.8496,3.4,12.65,47.84626,-54.09684
2022-01-08 02:49:00+00:00,362.048,3.3,12.65,47.84626,-54.09684
2022-01-08 02:59:00+00:00,336.4396,3.2,12.65,47.84626,-54.09684
2022-01-08 03:09:00+00:00,320.858,3.2,12.65,47.84626,-54.09684
2022-01-08 03:19:00+00:00,347.7064,3.13,12.65,47.84626,-54.09684
2022-01-08 03:29:00+00:00,376.9029,3.5,12.65,47.84626,-54.09684
2022-01-08 03:39:00+00:00,370.093,3.5,12.65,47.84626,-54.09684
2022-01-08 03:49:00+00:00,372.3996,3.4,12.65,47.84626,-54.09684
2022-01-08 03:59:00+00:00,398.6963,3.4,12.65,47.84626,-54.09684
2022-01-08 04:09:00+00:00,397.2129,3.5,12.65,47.84626,-54.09684
2022-01-08 04:19:00+00:00,381.2729,3.4,12.65,47.84626,-54.09684
2022-01-08 04:29:00+00:00,385.6697,3.3,12.65,47.84626,-54.09684
2022-01-08 04:39:00+00:00,380.4813,3.29,12.65,47.84626,-54.09684
2022-01-08 04:49:00+00:00,365.6179,3.2,12.65,47.84626,-54.09684
2022-01-08 04:59:00+00:00,356.8146,3.2,12.65,47.84626,-54.09684
2022-01-08 05:09:00+00:00,380.6779,3.31,12.65,47.84626,-54.09684
2022-01-08 05:19:00+00:00,383.9329,3.33,12.65,47.84626,-54.09684
2022-01-08 05:29:00+00:00,375.5096,3.31,12.65,47.84626,-54.09684
2022-01-08 05:39:00+00:00,375.9329,3.37,12.65,47.84626,-54.09684
2022-01-08 05:49:00+00:00,398.1396,3.4,12.65,47.84626,-54.09684
2022-01-08 05:59:00+00:00,390.9862,3.4,12.65,47.84626,-54.09684
2022-01-08 06:09:00+00:00,358.9163,3.4,12.65,47.84626,-54.09684
2022-01-08 06:19:00+00:00,356.8713,3.46,12.65,47.84626,-54.09684
2022-01-08 06:29:00+00:00,362.218,3.49,12.65,47.84626,-54.09684
2022-01-08 06:39:00+00:00,325.7563,3.4,12.65,47.84626,-54.09684
2022-01-08 06:49:00+00:00,294.143,3.43,12.65,47.84626,-54.09684
2022-01-08 06:59:00+00:00,293.2731,3.49,12.65,47.84626,-54.09684
2022-01-08 07:09:00+00:00,285.5414,3.49,12.65,47.84626,-54.09684
2022-01-08 07:19:00+00:00,260.7714,3.4,12.65,47.84626,-54.09684
2022-01-08 07:29:00+00:00,250.3347,3.4,12.65,47.84626,-54.09684
2022-01-08 07:39:00+00:00,264.7014,3.5,12.65,47.84626,-54.09684
2022-01-08 07:49:00+00:00,264.7197,3.5,12.65,47.84626,-54.09684
2022-01-08 07:59:00+00:00,248.8631,3.41,12.65,47.84626,-54.09684
2022-01-08 08:09:00+00:00,236.2181,3.41,12.65,47.84626,-54.09684
2022-01-08 08:19:00+00:00,233.6731,3.44,12.65,47.84626,-54.09684
2022-01-08 08:29:00+00:00,219.1115,3.4,12.65,47.84626,-54.09684
2022-01-08 08:39:00+00:00,208.9264,3.4,12.65,47.84626,-54.09684
2022-01-08 08:49:00+00:00,201.5364,3.4,12.65,47.84626,-54.09684
2022-01-08 08:59:00+00:00,198.5198,3.39,12.65,47.84626,-54.09684
2022-01-08 09:09:00+00:00,207.9464,3.3,12.65,47.84626,-54.09684
2022-01-08 09:19:00+00:00,219.2781,3.4,12.65,47.84626,-54.09684
2022-01-08 09:29:00+00:00,213.1664,3.49,12.65,47.84626,-54.09684
2022-01-08 09:39:00+00:00,212.6265,3.5,12.65,47.84626,-54.09684
2022-01-08 09:49:00+00:00,233.3648,3.5,12.65,47.84626,-54.09684
2022-01-08 09:59:00+00:00,250.7747,3.55,12.65,47.84626,-54.09684
2022-01-08 10:09:00+00:00,252.563,3.59,12.65,47.84626,-54.09684
2022-01-08 10:19:00+00:00,252.9698,3.5,12.65,47.84626,-54.09684
2022-01-08 10:29:00+00:00,257.3914,3.5,12.65,47.84626,-54.09684
2022-01-08 10:39:00+00:00,265.1514,3.5,12.65,47.84626,-54.09684
2022-01-08 10:49:00+00:00,279.83799999999997,3.56,12.65,47.84626,-54.09684
2022-01-08 10:59:00+00:00,285.2297,3.66,12.65,47.84626,-54.09684
2022-01-08 11:09:00+00:00,270.8798,3.63,12.65,47.84626,-54.09684
2022-01-08 11:19:00+00:00,273.7397,3.6,12.65,47.84626,-54.09684
2022-01-08 11:29:00+00:00,293.2281,3.61,12.65,47.84626,-54.09684
2022-01-08 11:39:00+00:00,290.743,3.65,12.65,47.84626,-54.09684
2022-01-08 11:49:00+00:00,282.5997,3.7,12.65,47.84626,-54.09684
2022-01-08 11:59:00+00:00,291.098,3.7,12.65,47.84626,-54.09684
2022-01-08 12:09:00+00:00,289.5014,3.7,12.65,47.84626,-54.09684
2022-01-08 12:19:01+00:00,278.3947,3.7,12.65,47.84626,-54.09684
2022-01-08 12:29:01+00:00,286.2598,3.7,12.65,47.84626,-54.09684
2022-01-08 12:39:01+00:00,298.5131,3.7,12.65,47.84626,-54.09684
2022-01-08 12:49:01+00:00,293.828,3.66,12.65,47.84626,-54.09684
2022-01-08 12:59:01+00:00,284.0714,3.7,12.65,47.84626,-54.09684
2022-01-08 13:09:01+00:00,288.2214,3.7,12.65,47.84626,-54.09684
2022-01-08 13:19:00+00:00,300.7847,3.7,12.65,47.84626,-54.09684
2022-01-08 13:29:00+00:00,303.0747,3.7,12.65,47.84626,-54.09684
2022-01-08 13:39:00+00:00,294.1547,3.7,12.65,47.84626,-54.09684
2022-01-08 13:49:00+00:00,288.8947,3.7,12.65,47.84626,-54.09684
2022-01-08 13:59:00+00:00,290.4914,3.7,12.65,47.84626,-54.09684
2022-01-08 14:09:00+00:00,307.0214,3.6,12.65,47.84626,-54.09684
2022-01-08 14:19:00+00:00,317.803,3.5,12.65,47.84626,-54.09684
2022-01-08 14:29:00+00:00,311.7047,3.41,12.65,47.84626,-54.09684
2022-01-08 14:39:00+00:00,301.1913,3.4,12.65,47.84626,-54.09684
2022-01-08 14:49:00+00:00,313.6146,3.42,12.65,47.84626,-54.09684
2022-01-08 14:59:00+00:00,335.8363,3.45,12.65,47.84626,-54.09684
2022-01-08 15:09:00+00:00,336.293,3.42,12.65,47.84626,-54.09684
2022-01-08 15:19:00+00:00,321.3146,3.43,12.73,47.84626,-54.09684
2022-01-08 15:29:00+00:00,319.5163,3.43,12.73,47.84626,-54.09684
2022-01-08 15:39:00+00:00,332.6213,3.4,12.73,47.84626,-54.09684
2022-01-08 15:49:00+00:00,342.2914,3.4,12.73,47.84626,-54.09684
2022-01-08 15:59:00+00:00,331.6229,3.4,12.73,47.84626,-54.09684
2022-01-08 16:09:00+00:00,340.8696,3.4,12.73,47.84626,-54.09684
2022-01-08 16:19:00+00:00,359.8796,3.4,12.81,47.84626,-54.09684
2022-01-08 16:29:00+00:00,360.5413,3.38,12.81,47.84626,-54.09684
2022-01-08 16:39:00+00:00,344.1813,3.3,12.81,47.84626,-54.09684
2022-01-08 16:49:00+00:00,347.37300000000016,3.3,12.81,47.84626,-54.09684
2022-01-08 16:59:00+00:00,349.7897,3.3,12.81,47.84626,-54.09684
2022-01-08 17:09:00+00:00,327.7448,3.28,12.81,47.84626,-54.09684
2022-01-08 17:19:00+00:00,311.5563,3.26,13.21,47.84626,-54.09684
2022-01-08 17:29:00+00:00,322.4479,3.3,13.21,47.84626,-54.09684
2022-01-08 17:39:00+00:00,327.3796,3.3,13.21,47.84626,-54.09684
2022-01-08 17:49:00+00:00,315.1147,3.27,13.21,47.84626,-54.09684
2022-01-08 17:59:00+00:00,295.003,3.28,13.21,47.84626,-54.09684
2022-01-08 18:09:00+00:00,286.3664,3.3,13.21,47.84626,-54.09684
2022-01-08 18:19:00+00:00,279.6864,3.29,13.13,47.84626,-54.09684
2022-01-08 18:29:00+00:00,268.1447,3.2,13.13,47.84626,-54.09684
2022-01-08 18:39:00+00:00,252.5714,3.2,13.13,47.84626,-54.09684
2022-01-08 18:49:00+00:00,242.9248,3.2,13.13,47.84626,-54.09684
2022-01-08 18:59:00+00:00,234.5031,3.2,13.13,47.84626,-54.09684
2022-01-08 19:09:00+00:00,227.9948,3.2,13.13,47.84626,-54.09684
2022-01-08 19:19:00+00:00,221.6864,3.2,12.97,47.84626,-54.09684
2022-01-08 19:29:00+00:00,213.6298,3.2,12.97,47.84626,-54.09684
2022-01-08 19:39:00+00:00,201.4464,3.2,12.97,47.84626,-54.09684
2022-01-08 19:49:00+00:00,189.3765,3.2,12.97,47.84626,-54.09684
2022-01-08 19:59:00+00:00,188.3431,3.2,12.97,47.84626,-54.09684
2022-01-08 20:09:00+00:00,181.9298,3.2,12.97,47.84626,-54.09684
2022-01-08 20:19:00+00:00,168.1315,3.2,12.81,47.84626,-54.09684
2022-01-08 20:29:00+00:00,170.1432,3.25,12.81,47.84626,-54.09684
2022-01-08 20:39:00+00:00,176.3015,3.2,12.81,47.84626,-54.09684
2022-01-08 20:49:00+00:00,164.3232,3.2,12.81,47.84626,-54.09684
2022-01-08 20:59:00+00:00,164.4598,3.25,12.81,47.84626,-54.09684
2022-01-08 21:09:00+00:00,183.0848,3.3,12.81,47.84626,-54.09684
2022-01-08 21:19:00+00:00,182.1632,3.2,12.73,47.84626,-54.09684
2022-01-08 21:29:00+00:00,170.5182,3.19,12.73,47.84626,-54.09684
2022-01-08 21:39:00+00:00,177.0798,3.2,12.73,47.84626,-54.09684
2022-01-08 21:49:00+00:00,190.0865,3.2,12.73,47.84626,-54.09684
2022-01-08 21:59:00+00:00,193.8615,3.13,12.73,47.84626,-54.09684
2022-01-08 22:09:00+00:00,196.9081,3.1,12.73,47.84626,-54.09684
2022-01-08 22:19:00+00:00,204.2498,3.1,12.65,47.84626,-54.09684
2022-01-08 22:29:00+00:00,215.5331,3.1,12.65,47.84626,-54.09684
2022-01-08 22:39:00+00:00,225.5014,3.1,12.65,47.84626,-54.09684
2022-01-08 22:49:00+00:00,232.373,3.0,12.65,47.84626,-54.09684
2022-01-08 22:59:00+00:00,238.6931,3.06,12.65,47.84626,-54.09684
2022-01-08 23:09:00+00:00,237.1931,3.03,12.65,47.84626,-54.09684
2022-01-08 23:19:00+00:00,232.5931,3.09,12.65,47.84626,-54.09684
2022-01-08 23:29:00+00:00,232.4648,3.36,12.65,47.84626,-54.09684
2022-01-08 23:39:00+00:00,231.0447,3.39,12.65,47.84626,-54.09684
2022-01-08 23:49:00+00:00,226.9164,3.2,12.65,47.84626,-54.09684
2022-01-08 23:59:00+00:00,228.5964,3.42,12.65,47.84626,-54.09684
